Theta_e
293 293 293 293 294 294 294 294 294 294 294 294 295 297 302 303 305 307 309 309 307 304 308 309 308 308 307 307 300 305 303 306 305 306 309 310 308 308 307 311 306 311 311 307 308 309 311 306 304 304 302 299 299 298
293 293 293 293 294 294 294 294 294 294 294 294 295 295 298 303 305 307 307 308 305 303 307 308 309 308 307 307 306 306 305 307 305 305 308 307 308 309 307 312 312 312 308 309 306 307 306 305 304 301 298 297 298 297
292 292 293 293 294 294 294 294 294 294 294 294 295 295 299 303 306 305 307 307 307 304 305 305 307 308 309 308 308 306 306 309 307 307 306 306 306 307 311 311 310 310 301 304 304 305 304 304 302 299 298 298 298 299
292 292 292 293 294 293 293 293 293 294 294 294 294 295 296 302 306 305 305 305 306 300 302 305 307 307 308 308 307 308 307 310 308 306 305 305 305 306 309 310 310 308 304 306 306 306 303 303 301 299 299 299 299 302
293 292 292 293 293 293 293 293 293 294 294 294 294 295 296 303 305 304 305 305 304 303 303 303 304 308 309 307 308 308 306 308 308 305 305 305 305 307 309 309 311 306 305 306 306 304 303 301 301 300 300 299 299 300
294 295 295 294 294 293 292 292 293 293 294 294 294 295 296 302 305 304 304 304 303 301 299 303 305 306 308 307 307 307 308 307 309 308 306 307 308 309 311 311 306 308 307 306 304 305 304 302 301 299 299 299 300 302
295 295 295 294 292 292 292 292 292 293 293 294 294 295 299 303 302 303 304 304 303 301 302 303 300 305 307 307 307 308 308 309 309 309 306 308 309 309 311 311 304 308 307 307 306 306 305 303 300 299 299 300 301 302
295 295 294 293 291 291 292 292 293 293 294 294 295 298 300 300 300 300 301 302 302 303 302 302 302 303 307 309 310 309 311 310 309 310 310 311 312 311 312 308 308 308 307 307 307 306 306 303 300 299 299 299 301 300
294 294 293 291 290 291 292 293 293 293 294 295 299 299 298 299 300 301 301 303 302 303 302 304 303 301 307 311 310 313 313 312 311 310 311 312 314 313 309 309 309 308 307 307 307 307 306 304 300 300 299 299 299 299
292 291 290 290 290 293 294 294 294 293 295 295 299 298 299 301 301 301 302 300 300 300 300 302 302 302 304 305 306 314 314 313 315 312 313 314 312 310 311 311 309 307 308 307 307 308 306 304 302 300 299 299 299 299
290 290 291 293 293 294 294 295 294 294 297 298 299 299 300 300 299 302 303 302 301 301 301 301 301 301 302 302 303 308 311 310 313 310 314 311 309 308 308 308 307 309 308 307 307 307 307 305 303 300 299 299 299 299
290 291 292 292 291 294 294 294 293 294 297 297 297 298 298 300 300 302 304 303 304 303 303 302 303 302 303 305 305 306 312 312 315 312 315 311 310 309 309 309 309 307 307 307 308 308 307 305 303 301 299 299 298 299
291 291 291 291 292 294 294 294 293 294 295 295 295 298 299 299 300 301 303 306 307 306 307 306 308 308 307 308 306 308 313 313 313 313 314 310 309 308 309 308 307 307 308 309 307 307 307 305 305 304 301 299 299 299
291 292 292 292 292 293 294 293 293 294 295 294 297 297 298 299 301 300 302 303 306 306 305 307 308 310 310 309 312 314 312 313 314 313 315 307 309 309 307 309 308 308 308 309 305 306 307 306 304 304 303 302 301 299
291 292 291 291 291 291 292 293 293 294 295 295 297 298 298 299 300 302 302 302 301 302 305 306 308 310 312 313 313 313 315 316 315 314 310 309 309 308 307 309 308 308 309 309 304 305 305 306 306 305 304 303 301 302
291 292 292 291 291 292 292 292 294 294 295 295 295 297 298 298 299 300 300 300 300 300 301 307 310 312 313 312 314 315 315 315 312 312 310 309 308 307 307 309 308 309 308 304 303 303 303 305 305 306 306 304 303 302
292 292 292 291 292 293 294 295 295 295 295 295 295 295 296 297 296 297 297 297 297 298 302 302 310 311 311 315 315 315 316 312 311 310 310 309 307 306 309 309 309 308 306 305 305 304 303 303 304 304 304 304 304 303
292 292 291 292 294 294 295 295 295 296 295 295 296 296 296 295 295 295 296 296 297 300 302 303 304 309 310 314 313 314 312 311 311 310 309 308 307 307 309 309 309 307 305 305 305 304 303 303 303 303 303 303 303 303
292 292 293 294 294 295 295 296 296 295 296 296 297 297 296 296 296 296 297 298 299 301 301 302 305 308 312 313 313 313 312 311 310 309 308 307 307 308 309 309 308 307 306 305 304 303 303 303 303 303 303 303 302 301
293 294 294 294 294 296 296 297 295 296 298 298 298 297 297 297 297 298 299 300 301 301 301 305 307 311 312 313 314 313 312 310 308 307 307 308 308 307 308 308 307 307 306 305 305 304 303 303 303 303 303 302 303 303
295 296 296 296 296 296 297 299 298 298 299 300 300 300 299 299 299 299 300 301 302 302 304 306 308 308 311 312 313 313 311 310 307 306 307 307 307 307 306 306 307 306 305 305 304 304 304 303 303 303 303 302 302 302
296 296 297 296 297 297 297 299 299 301 301 302 301 300 301 302 301 302 302 302 302 303 305 306 309 311 312 311 313 312 311 310 308 308 307 307 306 305 305 305 306 306 306 306 305 305 304 303 302 302 302 302 301 302
296 296 296 296 297 298 299 300 300 301 302 303 304 304 305 305 306 305 305 303 304 307 307 310 311 312 312 312 312 313 311 309 308 307 306 305 305 304 304 305 306 306 306 306 306 305 305 304 304 303 301 301 301 301
295 296 298 298 297 300 300 302 301 301 303 303 305 307 307 307 308 307 308 308 309 310 311 311 312 313 314 314 313 312 311 310 308 306 306 306 306 305 305 305 306 306 305 305 305 304 304 304 304 304 303 301 301 301
298 297 298 298 300 301 303 304 305 306 308 306 308 308 309 308 309 309 309 309 310 310 310 312 312 312 313 313 312 311 311 310 309 308 307 307 306 307 307 307 307 306 306 305 304 305 304 304 304 304 304 304 303 301
297 298 297 301 301 302 303 308 306 306 308 308 309 309 309 309 310 310 308 309 310 311 311 310 312 312 312 312 313 313 312 311 310 310 310 309 309 309 308 308 307 308 307 307 305 305 304 303 303 303 303 304 304 303
298 300 301 300 302 304 305 305 305 306 308 309 309 310 309 311 312 311 312 311 311 311 311 310 311 311 311 312 312 313 312 311 311 310 310 310 310 310 310 310 310 309 308 308 307 307 307 305 304 304 304 304 304 304
300 302 304 304 303 302 304 305 307 308 307 308 310 311 311 313 312 311 311 312 311 312 312 311 311 311 311 312 313 313 311 311 311 311 311 311 311 311 311 311 310 309 308 309 309 309 308 306 304 304 305 304 304 305
301 302 302 304 305 306 306 308 309 309 310 311 311 311 309 310 311 312 311 312 311 311 311 311 310 311 311 310 311 311 310 310 310 310 310 310 310 311 310 310 310 310 310 309 310 310 309 309 308 307 307 306 305 305
302 303 304 306 308 309 309 310 309 309 310 310 309 309 310 311 310 310 311 311 311 311 310 310 310 310 310 310 310 310 310 310 310 309 308 308 309 309 310 310 309 309 310 310 310 310 310 309 309 308 308 308 308 308
303 304 305 307 308 308 308 307 307 308 308 308 309 309 309 310 311 311 310 310 310 310 310 310 309 309 309 309 309 309 310 310 309 309 309 309 308 308 308 308 307 307 307 307 307 307 308 307 307 307 307 307 308 308
304 305 307 308 309 309 308 306 305 305 306 306 307 308 308 309 309 310 310 309 309 309 309 309 309 309 309 309 309 309 309 309 309 309 309 308 308 308 309 309 308 309 308 308 307 306 308 307 307 308 308 308 308 308
304 304 305 308 308 308 309 307 306 306 306 306 306 307 308 309 308 309 309 309 309 309 309 309 309 309 309 309 309 309 309 309 309 308 307 307 307 307 307 307 307 306 306 307 306 307 307 307 307 307 307 307 307 307
Wind_Speed
18 18 18 18 18 18 19 19 19 20 20 20 18 16 16 14 14 13 15 13 13 9 32 35 19 14 14 14 3 7 7 3 3 4 2 2 2 4 4 5 3 3 3 2 2 4 5 21 9 7 9 26 32 35
18 18 18 17 18 18 20 20 19 19 19 19 19 18 16 15 15 15 18 14 14 17 28 36 41 45 37 28 25 9 4 3 5 2 2 2 3 2 3 4 2 3 3 2 3 4 13 26 19 20 27 29 32 31
19 18 18 17 18 19 19 19 19 18 18 19 19 18 17 15 17 13 14 17 19 16 31 23 25 23 22 16 17 12 9 8 7 7 5 2 5 2 3 3 4 2 3 3 3 4 7 25 18 27 28 28 31 27
19 18 18 17 17 18 18 18 18 18 18 19 20 19 17 14 12 11 12 15 15 9 6 12 15 28 22 13 15 21 16 13 8 8 4 2 3 7 3 5 5 4 2 3 5 9 18 7 24 30 30 29 27 23
18 17 17 17 16 17 17 17 17 17 18 18 19 19 16 10 9 11 14 17 15 10 6 19 43 8 4 8 25 24 29 20 10 6 3 4 5 4 4 3 3 5 4 2 3 15 11 16 28 25 26 27 27 24
17 16 17 15 16 17 18 18 18 18 18 19 19 19 17 9 8 11 5 6 6 14 7 4 17 30 11 10 15 32 31 30 16 8 5 6 7 6 3 3 5 11 9 10 6 12 18 17 19 19 21 20 19 20
18 17 16 19 20 19 18 18 18 17 17 17 17 17 8 8 10 9 6 4 7 6 5 7 9 8 13 9 8 18 30 18 14 7 5 5 6 11 2 3 4 10 8 8 8 14 7 8 11 15 16 13 12 16
20 21 22 22 19 18 17 17 18 16 16 16 16 10 9 12 14 15 7 6 12 8 5 3 5 10 3 6 8 16 15 15 9 6 5 5 4 6 4 9 7 9 6 9 8 10 8 8 11 12 12 12 14 20
24 23 22 20 19 17 15 15 16 15 13 12 11 12 15 7 4 6 11 9 10 10 4 6 2 4 9 4 5 9 12 4 8 3 5 5 3 5 6 9 15 11 8 7 9 13 3 4 8 10 11 14 17 18
24 23 21 19 16 15 14 13 14 13 12 11 7 6 4 1 11 12 4 4 7 7 8 6 7 5 10 8 5 4 7 3 4 6 5 4 4 4 8 11 7 7 9 8 3 4 6 3 3 7 11 13 14 15
19 18 16 16 15 12 11 13 13 11 4 3 3 4 8 11 11 4 4 6 7 5 7 8 15 10 7 4 4 5 3 2 2 4 4 3 3 4 11 6 4 9 13 6 4 5 6 1 5 6 8 10 13 15
17 17 16 18 14 11 13 14 11 9 7 7 11 14 15 4 5 4 3 4 5 5 6 7 11 15 7 10 5 5 3 1 5 4 2 3 2 14 12 5 13 13 7 1 5 5 12 13 15 11 10 10 12 14
17 16 16 14 12 13 15 14 10 9 10 14 6 4 4 5 4 5 6 4 4 6 5 2 4 7 7 9 4 3 4 4 2 1 3 3 12 16 9 13 17 13 5 4 4 17 14 14 17 19 15 14 15 15
16 16 15 16 17 17 16 13 10 9 7 5 5 4 5 6 6 6 5 3 9 19 29 22 12 2 6 4 4 3 4 2 3 3 5 3 20 13 11 16 18 12 5 4 10 18 15 13 16 19 21 22 21 19
18 18 18 19 18 17 18 14 12 13 9 8 7 6 8 15 17 14 15 18 18 19 22 23 16 9 3 5 3 3 3 4 5 3 2 14 18 16 15 18 21 11 3 3 18 19 17 16 14 16 17 20 22 20
17 18 22 19 16 14 13 14 16 19 7 8 9 7 9 7 12 20 21 19 13 23 23 8 4 4 5 3 4 6 4 3 3 2 13 21 18 15 19 19 13 5 6 23 21 19 16 17 17 16 15 17 21 22
16 24 20 13 11 10 12 16 19 9 9 9 9 24 24 22 19 22 24 29 24 19 2 4 5 5 3 4 4 2 2 2 12 17 19 15 14 17 21 17 11 10 21 23 19 17 16 16 18 17 18 17 14 15
23 22 17 13 12 13 16 20 9 9 11 18 12 22 25 28 28 32 32 35 28 17 4 3 11 4 3 6 0 1 6 12 14 17 16 14 12 17 22 20 14 14 20 21 19 17 17 18 17 18 20 19 16 17
21 18 17 16 15 18 9 10 15 7 17 16 26 31 32 33 38 41 35 30 25 19 7 3 6 4 5 8 5 11 19 17 18 16 15 14 16 15 21 20 17 16 21 21 18 19 18 16 16 16 18 17 17 19
21 24 25 23 20 10 5 7 11 8 8 15 28 33 33 32 32 30 29 24 21 9 5 6 5 13 10 5 10 21 20 21 22 19 18 16 16 17 21 23 18 18 17 19 18 19 18 17 16 15 15 16 18 16
21 23 22 22 26 25 9 7 10 8 8 8 11 21 17 21 27 26 22 22 13 6 6 20 24 22 19 3 5 16 21 22 22 23 29 25 22 23 17 19 17 19 16 16 17 15 16 16 15 14 14 10 16 13
16 14 14 20 5 9 10 11 8 6 6 8 7 8 8 10 14 17 14 13 9 22 25 26 23 23 15 13 20 18 22 22 22 20 21 22 26 24 24 22 17 18 14 11 16 14 15 14 17 14 13 14 15 15
11 13 5 8 5 5 7 10 8 6 4 4 3 3 3 4 9 12 8 12 14 19 27 19 17 12 14 11 19 22 24 24 26 24 23 21 19 20 21 22 18 20 14 16 11 10 15 14 14 14 17 17 17 16
11 6 4 5 9 5 5 7 6 5 4 2 3 2 3 6 6 7 3 5 12 18 18 11 12 13 15 23 25 24 22 25 25 25 23 24 20 19 21 15 12 12 14 15 12 12 16 15 14 14 19 18 18 18
6 5 5 7 6 5 3 3 4 3 4 6 3 2 2 3 1 2 2 3 18 15 11 13 16 13 24 22 17 22 23 24 29 24 25 19 23 20 17 10 13 16 16 14 11 14 16 16 16 16 16 14 13 19
4 6 7 4 4 4 3 3 2 3 4 2 1 4 4 3 3 1 0 8 14 17 17 16 19 19 22 20 23 20 21 22 22 21 22 20 20 20 23 23 21 18 16 16 17 15 13 14 16 14 14 13 11 14
3 5 8 8 6 5 4 7 12 5 3 2 3 2 1 1 3 4 6 6 18 18 16 17 21 19 18 20 19 17 19 19 17 14 14 14 19 18 16 16 17 16 12 15 16 16 11 13 16 14 14 13 11 12
7 5 4 6 9 12 4 3 3 2 1 2 4 2 2 1 1 6 6 9 22 17 17 20 19 17 20 21 21 21 22 22 20 16 15 12 10 10 11 10 7 15 19 16 15 13 13 11 15 15 14 15 15 10
6 9 10 10 11 8 7 3 2 2 4 5 2 3 2 4 5 4 5 10 18 22 24 25 26 24 24 23 24 25 26 21 22 23 23 20 17 15 12 10 8 9 15 16 13 12 14 13 14 13 12 16 14 11
6 8 5 4 3 3 6 4 8 9 12 11 7 14 11 10 10 9 19 14 23 25 27 27 26 24 25 25 24 23 19 17 16 20 24 20 20 17 15 15 13 10 10 12 13 14 14 14 13 11 10 11 11 11
4 6 2 4 3 3 7 10 11 13 16 16 15 15 9 10 15 14 22 16 23 25 26 24 23 22 22 22 21 21 20 17 17 20 19 18 14 14 15 13 12 11 12 12 10 10 12 11 10 10 10 8 8 8
4 7 8 1 1 9 6 7 7 6 6 9 8 7 6 6 6 7 12 13 25 25 25 25 25 22 20 21 20 22 22 23 20 20 17 17 18 17 17 14 12 10 9 9 8 8 9 8 7 9 9 11 9 10
4 5 7 7 3 4 6 7 4 3 5 5 6 5 6 3 3 4 14 20 20 22 19 18 19 20 20 17 19 21 20 18 20 20 18 17 17 14 12 11 9 8 7 7 7 8 8 7 7 7 9 11 12 12
Wind_Direction
302 305 308 313 316 320 322 325 329 333 336 334 332 333 330 329 319 299 289 291 259 249 277 285 271 237 257 286 179 289 344 347 44 47 353 337 284 289 318 284 260 282 317 291 299 282 295 357 343 336 301 306 304 306
300 302 303 306 311 315 319 322 321 323 328 331 331 327 323 322 302 299 288 288 268 251 265 280 285 287 281 277 253 237 240 193 175 118 222 278 270 286 301 287 225 281 215 277 199 247 289 313 305 315 317 302 307 309
293 294 295 298 306 312 314 317 319 322 323 326 328 326 322 318 305 289 289 288 289 283 287 280 293 285 282 276 262 213 224 214 201 188 166 234 257 241 259 256 276 243 161 238 305 238 279 311 316 332 330 320 325 335
288 287 286 290 299 306 309 313 315 316 317 322 325 324 319 318 305 283 282 288 292 283 279 287 293 296 280 258 274 237 228 200 195 187 177 198 243 215 252 251 258 248 186 260 252 283 308 264 329 334 334 340 349 359
292 287 284 285 291 302 307 312 315 317 316 319 322 323 321 311 321 304 288 287 276 249 282 294 306 336 23 278 245 221 219 225 195 170 196 221 238 242 238 245 248 184 221 256 273 294 296 295 329 336 338 345 356 10
291 291 294 294 297 300 304 308 310 314 315 316 319 324 318 319 312 304 301 288 289 240 291 296 292 298 340 264 232 219 216 219 215 190 202 225 241 216 261 245 234 207 230 237 251 300 304 307 331 345 346 353 6 31
283 287 290 300 301 300 302 304 306 309 309 309 316 319 319 314 303 282 266 299 291 244 269 294 286 286 307 305 198 201 208 208 214 224 227 229 235 205 244 238 223 205 236 279 273 299 315 328 337 352 354 6 34 58
275 280 287 295 296 299 301 302 307 314 315 309 311 325 314 297 296 294 292 292 240 218 253 272 273 304 273 203 180 195 193 209 217 223 231 216 227 211 251 232 205 205 220 252 280 301 325 318 1 10 15 37 57 59
272 278 284 288 292 295 299 299 304 314 311 304 333 317 299 280 290 325 314 300 237 224 255 235 247 279 326 352 215 182 181 184 207 218 228 205 189 225 225 187 189 203 213 241 293 317 145 346 16 24 44 51 60 63
271 277 281 283 286 294 297 298 306 315 309 289 289 296 271 272 325 312 273 194 208 232 236 253 248 257 321 320 303 209 187 210 207 220 207 214 241 223 170 167 186 203 201 225 331 112 144 33 25 49 61 65 69 80
274 276 277 279 281 281 290 290 298 307 320 299 269 258 285 299 303 235 237 197 211 247 229 245 232 236 262 206 233 269 260 209 234 258 176 253 264 191 165 158 168 168 185 228 279 320 283 324 94 92 91 85 86 92
274 273 271 272 271 264 275 282 284 268 243 277 294 295 294 264 234 247 228 209 221 248 218 210 229 212 243 215 209 245 221 218 245 176 215 267 230 167 169 188 162 166 179 202 20 34 147 94 80 84 101 99 99 96
273 272 271 271 257 259 270 276 269 262 276 277 274 256 238 237 234 226 213 202 225 218 241 348 320 257 235 221 219 247 225 232 115 213 232 233 157 166 176 166 172 180 175 49 49 162 143 111 91 81 96 107 107 105
272 273 271 266 258 255 262 266 250 245 247 234 237 240 222 208 231 211 224 254 255 318 331 331 322 218 307 210 214 234 237 135 210 216 234 171 162 167 172 174 177 185 184 88 117 139 144 131 114 102 97 96 96 108
269 271 271 270 269 260 251 247 232 235 222 215 239 222 226 230 251 266 259 273 299 328 321 327 310 217 172 290 245 259 245 226 205 224 231 167 165 162 173 173 179 196 199 134 152 137 129 148 141 129 113 103 97 97
271 271 265 273 267 256 241 235 234 232 218 213 233 243 258 285 259 268 281 289 323 338 341 315 266 262 219 212 246 201 247 231 221 189 156 159 162 170 173 172 171 164 116 148 150 140 137 126 134 145 137 122 112 111
265 260 272 270 250 242 239 240 238 222 223 216 230 234 241 263 272 274 283 286 295 326 353 328 270 232 299 242 223 264 310 198 140 145 156 166 164 168 170 167 158 96 147 147 141 137 131 141 131 140 143 144 139 130
259 266 263 252 250 261 256 234 222 233 228 227 239 237 230 243 251 260 261 269 275 272 252 230 298 246 210 295 134 87 56 139 146 149 155 153 148 162 167 162 153 125 150 148 146 143 140 140 139 130 135 140 140 136
261 259 252 249 255 252 224 217 213 244 226 227 250 249 238 239 249 251 256 257 260 251 261 256 255 240 218 252 161 179 156 157 145 145 146 150 153 161 161 157 147 132 152 148 145 146 151 152 147 145 144 142 142 143
257 258 256 252 240 247 229 231 210 237 240 239 242 244 235 234 241 238 239 245 227 220 227 219 218 270 283 338 206 172 166 162 147 137 141 150 163 161 149 156 149 140 161 156 148 154 154 158 161 158 159 158 141 143
266 266 256 242 240 227 220 244 225 232 250 253 280 232 226 232 227 228 223 215 220 227 238 230 243 257 267 208 116 179 174 176 169 159 155 154 160 153 145 146 147 162 147 152 162 156 169 164 164 175 165 146 167 154
246 240 198 180 167 194 229 236 239 261 259 251 231 223 230 216 223 223 210 210 214 231 229 234 225 226 212 188 173 169 185 181 169 164 166 163 162 159 156 156 155 148 156 167 168 171 157 159 170 172 175 162 157 169
201 193 179 195 234 234 252 219 231 226 237 248 216 235 219 208 198 182 201 201 222 222 209 217 201 184 159 155 165 173 179 169 163 159 160 161 159 168 179 172 170 175 172 167 154 172 177 170 174 174 170 166 173 173
169 190 209 208 212 254 233 216 222 241 256 252 239 240 226 204 190 194 248 189 172 171 181 146 154 147 138 150 152 160 174 168 160 162 160 155 163 163 161 164 164 164 172 162 162 158 163 164 168 151 170 173 179 178
191 223 204 235 229 246 244 246 208 203 246 217 211 291 259 186 162 248 211 180 158 161 156 147 137 137 141 145 163 161 167 170 165 162 170 167 163 164 170 179 185 179 166 151 156 156 169 174 171 161 166 165 171 183
213 216 196 227 229 214 237 276 282 279 270 290 90 197 241 200 215 257 78 148 153 170 153 146 142 140 142 145 159 152 161 164 160 172 178 180 180 170 168 170 180 188 194 197 187 188 184 176 171 175 179 179 183 184
233 237 223 238 250 305 295 265 253 269 280 302 339 286 281 272 26 355 19 131 156 161 159 167 165 135 134 144 146 145 146 159 158 146 156 171 184 186 184 192 206 199 164 166 177 194 184 185 185 188 191 193 194 192
230 239 233 215 222 232 237 244 265 235 269 231 266 250 75 87 35 6 25 94 152 150 144 149 148 141 136 136 136 137 137 137 138 141 145 149 159 168 181 184 167 177 193 196 169 192 201 180 184 191 196 201 196 182
240 235 238 258 260 245 217 223 222 268 297 226 189 51 50 53 15 94 138 125 146 138 139 139 132 133 132 135 140 147 148 148 141 141 134 132 133 136 146 154 160 161 166 183 191 173 185 195 181 194 190 192 194 199
237 221 226 289 319 45 13 41 61 53 61 69 91 107 88 76 96 102 151 116 132 134 138 135 139 140 134 137 139 144 151 151 159 152 136 131 125 134 135 133 129 131 148 152 158 155 165 173 177 177 180 197 213 218
274 181 208 47 286 216 138 97 88 77 73 87 106 99 88 86 113 109 120 130 137 135 133 136 137 142 144 136 139 148 145 152 147 139 133 129 127 135 140 134 134 127 131 135 140 153 156 167 176 177 181 183 177 195
215 168 151 215 337 160 133 55 56 56 62 81 70 78 89 79 61 108 139 132 137 127 135 134 136 134 136 136 126 135 139 141 143 138 134 134 135 142 144 141 145 155 155 160 168 172 170 178 185 187 191 202 207 202
210 226 228 117 130 215 170 114 95 80 42 36 31 57 64 64 96 110 129 138 137 146 147 147 145 144 145 143 140 142 142 141 143 146 144 150 150 151 155 158 165 160 170 182 180 189 199 202 197 198 196 195 202 209